EDT,Max TemperatureF,Mean TemperatureF,Min TemperatureF,Max Dew PointF,MeanDew PointF,Min DewpointF,Max Humidity, Mean Humidity, Min Humidity, Max Sea Level PressureIn, Mean Sea Level PressureIn, Min Sea Level PressureIn, Max VisibilityMiles, Mean VisibilityMiles, Min VisibilityMiles, Max Wind SpeedMPH, Mean Wind SpeedMPH, Max Gust SpeedMPH,PrecipitationIn, CloudCover, Events, WindDirDegrees
2013-5-1,60,58,55,61,56,54,100,95,88,30.36,30.28,30.21,10,8,3,16,8,24,0.00,8,Rain,38
2013-5-2,60,55,50,57,53,48,100,92,77,30.37,30.34,30.29,10,8,0,12,7,17,0.00,7,Fog,47
2013-5-3,66,54,41,52,46,41,100,78,46,30.31,30.27,30.21,10,10,1,16,6,22,0.00,3,,61
2013-5-4,57,52,46,52,47,43,93,86,72,30.25,30.19,30.13,10,10,10,15,9,20,0.00,7,,54
2013-5-5,57,52,46,55,49,45,100,91,82,30.14,30.09,30.03,10,9,3,16,11,26,0.00,8,Rain-Thunderstorm,60
2013-5-6,62,58,53,61,57,54,100,99,88,30.04,29.95,29.87,10,8,2,15,10,22,1.58,7,Rain-Thunderstorm,73
2013-5-7,68,60,51,61,55,48,100,89,52,29.97,29.91,29.88,10,8,0,8,2,,0.03,6,Fog-Rain-Thunderstorm,177
2013-5-8,66,58,51,61,54,52,100,89,64,30.03,29.98,29.94,10,9,0,10,1,,0.05,7,Fog-Rain-Thunderstorm,224
2013-5-9,78,61,44,61,55,45,100,74,39,30.08,30.04,30.00,10,8,0,7,1,,0.01,3,Fog,282
2013-5-10,82,66,51,61,57,52,100,72,39,30.09,30.04,29.97,10,10,3,15,3,21,0.00,1,,212
2013-5-11,78,70,62,64,61,57,100,72,47,29.97,29.89,29.80,10,10,10,16,6,21,0.02,5,Rain-Thunderstorm,218
2013-5-12,69,60,48,63,47,34,100,63,30,30.06,29.93,29.82,10,10,10,12,3,20,0.03,4,Rain,314
2013-5-13,62,50,37,43,36,30,100,64,30,30.21,30.12,30.06,10,10,10,14,2,,0.00,4,,331
2013-5-14,68,50,33,43,38,32,100,62,28,30.27,30.19,30.08,10,10,7,10,2,16,0.00,1,,220
2013-5-15,86,70,53,61,53,41,72,57,37,30.08,30.01,29.91,10,10,10,15,6,22,0.00,0,,221
2013-5-16,82,70,57,63,59,55,100,67,39,30.01,29.96,29.92,10,10,0,12,3,20,0.00,0,Fog,251
2013-5-17,82,70,57,66,60,55,100,74,39,30.12,30.07,30.01,10,10,2,9,1,,0.00,1,,178
2013-5-18,71,66,60,68,63,57,100,90,78,30.19,30.16,30.10,10,9,1,8,4,,0.36,4,Rain-Thunderstorm,70
2013-5-19,73,66,60,70,66,61,100,97,83,30.19,30.14,30.09,10,8,1,8,2,,0.53,8,Rain-Thunderstorm,155
2013-5-20,77,70,64,70,67,64,100,97,74,30.14,30.10,30.05,10,9,1,12,3,20,0.54,6,Rain-Thunderstorm,185
2013-5-21,82,74,66,72,69,66,100,89,62,30.08,30.03,29.97,10,9,2,10,4,,0.00,5,,207
2013-5-22,82,75,68,70,68,64,100,83,54,30.05,30.00,29.94,10,10,7,13,8,20,0.00,5,,204
2013-5-23,77,70,62,70,66,63,100,89,65,29.99,29.93,29.84,10,9,2,7,3,,0.32,6,Rain-Thunderstorm,226
2013-5-24,66,58,51,64,50,34,100,69,34,30.22,30.01,29.85,10,10,10,17,5,34,0.00,4,,323
2013-5-25,71,54,37,50,39,32,100,62,23,30.28,30.22,30.16,10,10,7,10,2,18,0.00,0,,314
2013-5-26,71,56,41,54,45,37,100,71,31,30.30,30.24,30.20,10,10,10,6,1,,0.00,1,,301
2013-5-27,77,60,44,55,51,45,100,71,41,30.30,30.25,30.18,10,10,7,10,2,,0.00,2,,201
2013-5-28,80,68,55,64,61,54,100,73,54,30.27,30.21,30.17,10,10,10,14,5,21,0.00,1,,204
2013-5-29,82,70,59,64,62,59,100,74,48,30.26,30.22,30.19,10,10,4,13,5,18,0.00,0,,215
2013-5-30,82,71,60,66,63,59,100,77,45,30.30,30.25,30.21,10,10,7,10,4,9,0.00,1,,214
2013-5-31,84,73,62,68,64,61,100,78,45,30.25,30.20,30.14,10,10,0,13,3,16,0.00,1,Fog,217